[[{"header":{"parameterUnit":"m.s-1","parameterCategory":2,"la1":30.2991,"la2":30.254,"lo1":-89.0895,"lo2":-89.0444,"dy":0.0017,"dx":0.0017,"nx":28,"ny":28,"refTime":"2025-08-13T03:00:00:Z","depth":"0","parameterNumber":2,"parameterNumberName":"U-component_of_CURRENTS"},"data":[0,0,0,0,0,0,0,0,0,0,0,0,0,0,0,0,0,0,0,0,0,0,0,0,0,0,0,0,0,0,0,0,0,0,0,0,0,0,0,0,0,0,0,0,0,0,0,0,0,0,0,0,0,0,0,0,0,0,0.1418,0.1418,0,0.1434,0.1434,0.1434,0.1426,0.1426,0.1425,0.1425,0.1403,0.1403,0.1402,0,0,0,0,0,0,0,0,0,0,0,0,0,0.1374,0.1375,0.1418,0.1418,0.1419,0.1434,0.1434,0.1434,0.1426,0.1426,0.1425,0.1425,0.1403,0.1403,0.1402,0,0,0,0,0,0,0,0,0,0,0,0,0,0.139,0.1375,0.1418,0.1418,0.1418,0.1434,0.1434,0.1434,0.1426,0.1426,0.1425,0.1425,0.1403,0.1403,0.1402,0.1405,0,0,0.14,0.14,0,0,0,0,0,0,0,0,0.1389,0.1391,0.1418,0.1418,0.1418,0.1429,0.141,0.1423,0.1426,0.1421,0.1425,0.1425,0.141,0.1409,0.141,0.1404,0.1403,0.14,0.14,0.14,0.14,0,0,0,0,0,0,0,0.1388,0.139,0.1422,0.1418,0.1419,0.1415,0.1417,0.1413,0.1415,0.1421,0.1421,0.1426,0.1409,0.1411,0.1409,0.1403,0.14,0.14,0.1399,0.1399,0.1412,0.1413,0,0,0,0,0,0,0.1391,0.139,0.1422,0.1423,0.1405,0.1416,0.1418,0.1424,0.1416,0.1415,0.1427,0.1426,0.1412,0.141,0.1409,0.1426,0.14,0.1399,0.1399,0.1411,0.1412,0.1413,0,0,0,0,0,0,0.139,0.1394,0.1421,0.1408,0.1411,0.1418,0.1425,0.1425,0.1429,0.1421,0.1418,0.1431,0.1411,0.1409,0.1411,0.1424,0.1399,0.1398,0.1411,0.1412,0.1413,0.1452,0,0,0,0,0,0,0.1389,0.1393,0.1398,0.1408,0.1412,0.1435,0.1425,0.1426,0.1433,0.1433,0.1423,0.1421,0.1411,0.1412,0.141,0.1423,0.1398,0.141,0.1411,0.1412,0.1449,0.1454,0.1458,0,0,0,0,0,0.1387,0.1395,0.1398,0.1402,0.1419,0.1435,0.1437,0.1439,0.1434,0.144,0.1434,0.1421,0.1419,0.1412,0.141,0.1423,0.1409,0.1411,0.1412,0.1448,0.1453,0.1457,0,0,0,0,0,0,0.1377,0.1396,0.1399,0.1412,0.1425,0.1435,0.1441,0.1443,0.1443,0.1441,0.1429,0.1426,0.1433,0.1423,0.1416,0.1431,0.1412,0.1414,0.144,0.1445,0.1449,0.1455,0.1398,0,0,0,0,0,0.1379,0.139,0.1407,0.1417,0.1426,0.1434,0.1441,0.1444,0.1448,0.1448,0.1442,0.1437,0.1439,0.1437,0.1435,0.1442,0.1451,0.1449,0.1453,0.1457,0.1461,0.1483,0.1489,0.1418,0.1418,0.1418,0,0,0.1376,0.139,0.1395,0.1416,0.1426,0.1441,0.1437,0.1451,0.1462,0.1445,0.1454,0.1451,0.1444,0.1453,0.1456,0.1446,0.1487,0.1459,0.1462,0.1464,0.1485,0.1492,0.1498,0.1419,0.1419,0.1419,0,0,0.138,0.1392,0.1403,0.1418,0.1439,0.1447,0.1454,0.1467,0.1472,0.1483,0.1475,0.1483,0.1478,0.1482,0.1482,0.1507,0.1508,0.1505,0.153,0.1552,0.1558,0.1563,0.1606,0.1615,0.1507,0.1507,0.1507,0,0.1376,0.1395,0.1409,0.1426,0.144,0.1452,0.1468,0.1478,0.1489,0.1499,0.1489,0.1502,0.1494,0.1515,0.1523,0.1517,0.1535,0.1512,0.1558,0.1563,0.1568,0.161,0.162,0.1509,0.1508,0.1508,0.1508,0,0.139,0.1406,0.1416,0.1442,0.1459,0.1476,0.1496,0.1511,0.1517,0.1526,0.1547,0.1543,0.1553,0.1553,0.1544,0.1578,0.1583,0.1561,0.1546,0.1578,0.1621,0.163,0.1512,0.1511,0.151,0.151,0,0,0.1378,0.1417,0.142,0.1437,0.147,0.1485,0.1513,0.1542,0.1565,0.1572,0.16,0.1603,0.1606,0.1606,0.1602,0.1618,0.1673,0.1606,0.1606,0.1652,0.1743,0.1814,0.183,0.1658,0.166,0.1661,0.1767,0,0.1385,0.1415,0.1436,0.1467,0.1486,0.1512,0.1538,0.1566,0.1589,0.1619,0.1625,0.1647,0.1626,0.1637,0.1651,0.1666,0.1695,0.1648,0.1703,0.1705,0.1766,0.1842,0.1859,0.196,0.1776,0.1777,0.1778,0,0.1393,0.1414,0.1441,0.1485,0.1497,0.1516,0.1568,0.1595,0.1641,0.166,0.1687,0.1696,0.173,0.1699,0.1753,0.1725,0.1741,0.1749,0.1753,0.181,0.1793,0.1894,0.1984,0.1954,0.1792,0.1791,0.179,0,0.1378,0.142,0.1441,0.1455,0.1503,0.1524,0.1553,0.1604,0.1635,0.1693,0.1725,0.1758,0.1788,0.1803,0.1837,0.1795,0.1905,0.1845,0.1929,0.1934,0.1956,0.1961,0.2023,0.1888,0.1888,0.1888,0.1887,0,0.1381,0.1398,0.1434,0.1446,0.1477,0.1518,0.1559,0.1599,0.1659,0.1709,0.1744,0.1799,0.1814,0.1877,0.1879,0.1965,0.1946,0.1963,0.1975,0.1973,0.1979,0.1957,0.1921,0.1892,0.1891,0.189,0.1889,0,0.1362,0.1386,0.141,0.1454,0.1469,0.1492,0.1555,0.1589,0.1656,0.1726,0.1749,0.1845,0.195,0.1989,0.2046,0.2043,0.2064,0.2125,0.2143,0.2155,0.2182,0.2148,0.2112,0.2035,0.2225,0.2228,0.223,0,0.1355,0.1364,0.1402,0.1416,0.1435,0.1473,0.1502,0.1573,0.1619,0.1761,0.1798,0.1934,0.2046,0.2192,0.2234,0.2304,0.2185,0.2332,0.2247,0.2224,0.2192,0.2041,0.1964,0.2294,0.2297,0.2299,0.23,0,0.1336,0.1345,0.1363,0.1391,0.1417,0.1451,0.1505,0.1541,0.1643,0.1733,0.1884,0.1996,0.2186,0.2302,0.2414,0.2436,0.2255,0.2376,0.2337,0.2259,0.2112,0.203,0.2192,0.2318,0.2317,0.2315,0.2314,0.2314,0.1314,0.1318,0.1339,0.1366,0.1396,0.1433,0.1453,0.1533,0.1627,0.1759,0.1899,0.2063,0.2294,0.2479,0.2484,0.2534,0.24,0.2477,0.2442,0.2294,0.2201,0.243,0.2574,0.2574,0.2573,0.2573,0.2573,0,0.1282,0.1294,0.1317,0.1345,0.1364,0.1395,0.1455,0.1478,0.1579,0.1745,0.189,0.217,0.2367,0.2503,0.2664,0.2607,0.2418,0.2544,0.2321,0.224,0.2462,0.245,0.2593,0.2593,0.2593,0.2593,0.2593,0.2593,0.1263,0.1267,0.1284,0.1306,0.1329,0.134,0.1365,0.142,0.1521,0.1705,0.1865,0.2017,0.2356,0.267,0.2729,0.2656,0.24,0.2358,0.2241,0.2421,0.2409,0.2398,0.2378,0.2504,0.2504,0.1941,0.1937,0.1935]},{"header":{"parameterUnit":"m.s-1","parameterCategory":2,"la1":30.2991,"la2":30.254,"lo1":-89.0895,"lo2":-89.0444,"dy":0.0017,"dx":0.0017,"nx":28,"ny":28,"refTime":"2025-08-13T03:00:00:Z","depth":"0","parameterNumber":3,"parameterNumberName":"V-component_of_CURRENTS"},"data":[0,0,0,0,0,0,0,0,0,0,0,0,0,0,0,0,0,0,0,0,0,0,0,0,0,0,0,0,0,0,0,0,0,0,0,0,0,0,0,0,0,0,0,0,0,0,0,0,0,0,0,0,0,0,0,0,0,0,-0.0269,-0.0269,0,-0.0301,-0.0302,-0.0302,-0.0317,-0.0317,-0.0317,-0.0317,-0.0351,-0.0352,-0.0353,0,0,0,0,0,0,0,0,0,0,0,0,0,-0.0231,-0.0232,-0.0269,-0.0269,-0.027,-0.0301,-0.0302,-0.0302,-0.0317,-0.0317,-0.0317,-0.0317,-0.0351,-0.0352,-0.0353,0,0,0,0,0,0,0,0,0,0,0,0,0,-0.0254,-0.0232,-0.0269,-0.0281,-0.0282,-0.0301,-0.0302,-0.0302,-0.0317,-0.0317,-0.0317,-0.0317,-0.035,-0.0352,-0.0353,-0.0362,0,0,-0.0357,-0.0358,0,0,0,0,0,0,0,0,-0.0253,-0.0255,-0.0279,-0.028,-0.0282,-0.0305,-0.0301,-0.0322,-0.0317,-0.0303,-0.0317,-0.0317,-0.0336,-0.0338,-0.0344,-0.0364,-0.0365,-0.0357,-0.0358,-0.0359,-0.0359,0,0,0,0,0,0,0,-0.0251,-0.0254,-0.0281,-0.0279,-0.0281,-0.0289,-0.0292,-0.0305,-0.0319,-0.0305,-0.0306,-0.031,-0.0337,-0.0343,-0.0345,-0.0366,-0.0357,-0.0359,-0.0359,-0.036,-0.0397,-0.0397,0,0,0,0,0,0,-0.0247,-0.0253,-0.028,-0.0282,-0.0267,-0.029,-0.0293,-0.0297,-0.0319,-0.0322,-0.031,-0.031,-0.0341,-0.0344,-0.0346,-0.0356,-0.0359,-0.036,-0.0361,-0.0397,-0.0397,-0.0397,0,0,0,0,0,0,-0.0246,-0.0249,-0.0279,-0.0268,-0.0273,-0.029,-0.0295,-0.0298,-0.0304,-0.0323,-0.0326,-0.0312,-0.0341,-0.0345,-0.0357,-0.0357,-0.0361,-0.0362,-0.0397,-0.0397,-0.0397,-0.0376,0,0,0,0,0,0,-0.0245,-0.0249,-0.025,-0.0268,-0.0273,-0.0286,-0.0295,-0.0299,-0.0306,-0.0308,-0.0326,-0.033,-0.0341,-0.0355,-0.0359,-0.0359,-0.0363,-0.0397,-0.0397,-0.0397,-0.0376,-0.0375,-0.0374,0,0,0,0,0,-0.0243,-0.0241,-0.025,-0.0254,-0.0275,-0.0285,-0.0289,-0.0301,-0.0307,-0.0306,-0.0321,-0.0329,-0.036,-0.0356,-0.036,-0.0361,-0.0397,-0.0397,-0.0397,-0.0377,-0.0375,-0.0374,0,0,0,0,0,0,-0.0224,-0.0243,-0.0253,-0.0257,-0.027,-0.0288,-0.0288,-0.03,-0.0312,-0.0312,-0.0331,-0.0335,-0.0347,-0.0358,-0.0354,-0.0374,-0.038,-0.0381,-0.0362,-0.0361,-0.036,-0.035,-0.0364,0,0,0,0,0,-0.0222,-0.0226,-0.0246,-0.0248,-0.0253,-0.0272,-0.0278,-0.0287,-0.03,-0.0305,-0.032,-0.0336,-0.0352,-0.0359,-0.0373,-0.0383,-0.0397,-0.0387,-0.0386,-0.0385,-0.038,-0.0411,-0.0413,-0.0399,-0.0399,-0.0399,0,0,-0.0215,-0.0226,-0.0229,-0.0245,-0.0255,-0.0255,-0.0275,-0.028,-0.0281,-0.0307,-0.0312,-0.0333,-0.0354,-0.0366,-0.0372,-0.0374,-0.0395,-0.0386,-0.0385,-0.0379,-0.0412,-0.0413,-0.0414,-0.0399,-0.0399,-0.0399,0,0,-0.0195,-0.0213,-0.0206,-0.0215,-0.0229,-0.0242,-0.0242,-0.026,-0.0269,-0.0279,-0.03,-0.0321,-0.034,-0.0359,-0.037,-0.0373,-0.039,-0.0378,-0.0363,-0.0394,-0.0395,-0.0397,-0.0408,-0.041,-0.0377,-0.0377,-0.0377,0,-0.0184,-0.0182,-0.0205,-0.02,-0.0203,-0.0233,-0.0223,-0.0238,-0.0259,-0.0267,-0.0275,-0.0317,-0.0337,-0.0358,-0.0359,-0.037,-0.0384,-0.0365,-0.0392,-0.0394,-0.0396,-0.0407,-0.041,-0.0376,-0.0376,-0.0376,-0.0376,0,-0.0159,-0.0158,-0.0154,-0.0159,-0.0166,-0.0164,-0.0187,-0.0198,-0.0215,-0.0233,-0.0259,-0.0292,-0.0317,-0.033,-0.0344,-0.0367,-0.0371,-0.0388,-0.0394,-0.0396,-0.0407,-0.0411,-0.0374,-0.0375,-0.0375,-0.0375,0,0,-0.0127,-0.0134,-0.0131,-0.0126,-0.0144,-0.0145,-0.0152,-0.0169,-0.0176,-0.0206,-0.0217,-0.0257,-0.0283,-0.0298,-0.0327,-0.0354,-0.0379,-0.0373,-0.0375,-0.0379,-0.0434,-0.0419,-0.0421,-0.0403,-0.0404,-0.0405,-0.0433,0,-0.0098,-0.0076,-0.0091,-0.0073,-0.0065,-0.0095,-0.0099,-0.0121,-0.0149,-0.0169,-0.0216,-0.0237,-0.0269,-0.0283,-0.0317,-0.0363,-0.0389,-0.0368,-0.0434,-0.0435,-0.0419,-0.0425,-0.0398,-0.042,-0.0437,-0.0437,-0.0438,0,-0.0066,-0.0056,-0.0031,-0.0031,-0.003,-0.0027,-0.0044,-0.0053,-0.0096,-0.0116,-0.0156,-0.0196,-0.0239,-0.0268,-0.0347,-0.0333,-0.0378,-0.0415,-0.0418,-0.0413,-0.0427,-0.0423,-0.0426,-0.0553,-0.0444,-0.0443,-0.0443,0,-0.0029,-0.0015,0.0007,0.0007,0.0002,0.0004,-0.0002,-0.0037,-0.004,-0.0086,-0.0089,-0.0161,-0.0178,-0.0259,-0.0332,-0.0345,-0.0412,-0.0442,-0.0471,-0.047,-0.0463,-0.046,-0.0593,-0.0499,-0.0499,-0.0499,-0.0499,0,0.0006,0.0023,0.0026,0.0038,0.0063,0.0042,0.0053,0.0033,0.0009,0.0024,-0.0057,-0.0049,-0.0177,-0.0231,-0.0316,-0.0392,-0.0402,-0.0464,-0.0479,-0.0453,-0.0449,-0.0573,-0.0659,-0.05,-0.05,-0.0499,-0.0499,0,0.004,0.0042,0.0068,0.0075,0.0081,0.0097,0.0103,0.011,0.0083,0.01,0.0093,0.0035,-0.0022,-0.0145,-0.0261,-0.035,-0.0512,-0.0464,-0.0412,-0.0421,-0.0576,-0.066,-0.0812,-0.0879,-0.0512,-0.0511,-0.0511,0,0.0058,0.0077,0.0103,0.0127,0.0133,0.0153,0.0171,0.0151,0.017,0.0171,0.0198,0.0143,0.0152,-0.0016,-0.0196,-0.0347,-0.0486,-0.0439,-0.0468,-0.0579,-0.0686,-0.0754,-0.0805,-0.0449,-0.0448,-0.0448,-0.0448,0,0.0097,0.0106,0.0131,0.0182,0.0211,0.0248,0.0278,0.0313,0.031,0.0352,0.0415,0.0424,0.0258,0.0128,-0.0106,-0.0229,-0.0543,-0.0433,-0.0574,-0.0667,-0.0727,-0.0798,-0.0426,-0.0443,-0.0443,-0.0444,-0.0444,-0.0444,0.0128,0.0157,0.0195,0.0246,0.0287,0.0359,0.042,0.0478,0.0562,0.0668,0.0626,0.0707,0.0438,0.0136,-0.0088,-0.0473,-0.0504,-0.0579,-0.0675,-0.0736,-0.08,-0.0405,-0.0424,-0.0424,-0.0425,-0.0425,-0.0425,0,0.0176,0.0211,0.0261,0.0333,0.0402,0.0407,0.0507,0.0598,0.0756,0.0861,0.0948,0.0899,0.0568,0.0184,-0.0342,-0.0642,-0.0786,-0.0822,-0.093,-0.0974,-0.0635,-0.0631,-0.0666,-0.0666,-0.0666,-0.0666,-0.0665,-0.0665,0.0203,0.0267,0.0297,0.0427,0.0485,0.0606,0.0687,0.0835,0.0951,0.1156,0.1244,0.1262,0.0989,-0.0032,-0.072,-0.0898,-0.1154,-0.1208,-0.1341,-0.1122,-0.1107,-0.1093,-0.1109,-0.1244,-0.1244,-0.1627,-0.1631,-0.1634]}],[{"header":{"parameterUnit":"m.s-1","parameterCategory":2,"la1":30.2991,"la2":30.254,"lo1":-89.0895,"lo2":-89.0444,"dy":0.0017,"dx":0.0017,"nx":28,"ny":28,"refTime":"2025-08-13T03:00:00:Z","depth":"2","parameterNumber":2,"parameterNumberName":"U-component_of_CURRENTS"},"data":[0,0,0,0,0,0,0,0,0,0,0,0,0,0,0,0,0,0,0,0,0,0,0,0,0,0,0,0,0,0,0,0,0,0,0,0,0,0,0,0,0,0,0,0,0,0,0,0,0,0,0,0,0,0,0,0,0,0,0.1426,0.1427,0,0.1441,0.1441,0.1441,0.1436,0.1436,0.1436,0.1436,0.1415,0.1415,0.1414,0,0,0,0,0,0,0,0,0,0,0,0,0,0.1378,0.1379,0.1426,0.1427,0.1427,0.1441,0.1441,0.1441,0.1436,0.1436,0.1436,0.1435,0.1415,0.1415,0.1414,0,0,0,0,0,0,0,0,0,0,0,0,0,0.1395,0.1379,0.1426,0.1428,0.1428,0.1441,0.1441,0.1441,0.1436,0.1436,0.1436,0.1435,0.1415,0.1415,0.1414,0.1414,0,0,0.1412,0.1412,0,0,0,0,0,0,0,0,0.1394,0.1396,0.1427,0.1428,0.1428,0.1439,0.1417,0.1431,0.1436,0.1431,0.1436,0.1435,0.1421,0.142,0.1421,0.1413,0.1412,0.1412,0.1412,0.1412,0.1411,0,0,0,0,0,0,0,0.1393,0.1396,0.143,0.1428,0.1428,0.1423,0.1425,0.142,0.1424,0.1431,0.1431,0.1437,0.1421,0.1421,0.142,0.1412,0.1412,0.1412,0.1411,0.1411,0.1426,0.1427,0,0,0,0,0,0,0.1397,0.1395,0.143,0.1431,0.1413,0.1424,0.1426,0.1434,0.1425,0.1425,0.1437,0.1436,0.1423,0.1421,0.1419,0.1442,0.1412,0.1411,0.1411,0.1425,0.1426,0.1427,0,0,0,0,0,0,0.1396,0.14,0.1429,0.1415,0.1418,0.1426,0.1434,0.1434,0.144,0.1431,0.1429,0.1443,0.1422,0.142,0.1423,0.144,0.1411,0.141,0.1424,0.1426,0.1427,0.1472,0,0,0,0,0,0,0.1394,0.1399,0.1405,0.1415,0.1419,0.1442,0.1434,0.1435,0.1444,0.1444,0.1435,0.1433,0.1422,0.1424,0.1422,0.1439,0.141,0.1423,0.1425,0.1426,0.147,0.1475,0.1479,0,0,0,0,0,0.1392,0.14,0.1405,0.141,0.1428,0.1442,0.1444,0.1446,0.1445,0.145,0.1446,0.1433,0.1432,0.1424,0.1422,0.1439,0.1423,0.1425,0.1426,0.1467,0.1474,0.1479,0,0,0,0,0,0,0.138,0.1401,0.1407,0.142,0.1434,0.1442,0.1449,0.1452,0.1453,0.1453,0.1441,0.1439,0.1448,0.1437,0.1429,0.1448,0.1426,0.1428,0.1458,0.1464,0.1469,0.1475,0.1409,0,0,0,0,0,0.1382,0.1395,0.1413,0.1424,0.1433,0.1443,0.1449,0.1454,0.1458,0.1459,0.1455,0.1451,0.1454,0.1454,0.145,0.1459,0.1466,0.1469,0.1474,0.1478,0.1482,0.1505,0.1512,0.1433,0.1433,0.1433,0,0,0.138,0.1394,0.1401,0.1423,0.1433,0.1448,0.1446,0.1461,0.1473,0.1456,0.1468,0.1466,0.1459,0.1471,0.1475,0.1464,0.1508,0.148,0.1484,0.1485,0.1508,0.1516,0.1523,0.1434,0.1434,0.1434,0,0,0.1383,0.1398,0.141,0.1424,0.1446,0.1455,0.1462,0.1477,0.1484,0.1497,0.1492,0.1503,0.1499,0.1505,0.1505,0.1533,0.1532,0.1532,0.1561,0.1585,0.1591,0.1597,0.1635,0.1644,0.1535,0.1535,0.1535,0,0.138,0.1399,0.1415,0.1431,0.1445,0.146,0.1476,0.1488,0.1501,0.1514,0.1505,0.1524,0.1517,0.1541,0.1552,0.1545,0.1561,0.1541,0.1591,0.1597,0.1603,0.1639,0.1649,0.1538,0.1537,0.1537,0.1537,0,0.1392,0.1409,0.1418,0.1445,0.1462,0.1479,0.1502,0.1519,0.1531,0.1544,0.1571,0.1569,0.1582,0.1584,0.1575,0.1614,0.1616,0.1595,0.1578,0.1614,0.165,0.1659,0.1541,0.154,0.154,0.1539,0,0,0.138,0.1419,0.1422,0.1439,0.1473,0.1488,0.1517,0.155,0.1577,0.1591,0.1625,0.1633,0.1641,0.1642,0.1639,0.1658,0.1715,0.1646,0.1646,0.1686,0.1783,0.18,0.1811,0.1704,0.1705,0.1706,0.18,0,0.1385,0.1414,0.1435,0.1465,0.1483,0.1513,0.154,0.1573,0.1601,0.1638,0.1653,0.168,0.166,0.1676,0.1693,0.1709,0.1738,0.1692,0.174,0.1742,0.1754,0.1821,0.1692,0.1766,0.1809,0.181,0.1811,0,0.1389,0.141,0.1437,0.1481,0.1493,0.1514,0.1569,0.1598,0.1654,0.1678,0.1714,0.1729,0.1771,0.1741,0.1797,0.1771,0.1783,0.1792,0.1795,0.1799,0.1775,0.1733,0.178,0.1826,0.1825,0.1824,0.1823,0,0.1371,0.1412,0.1434,0.1449,0.1499,0.1521,0.1552,0.1609,0.1644,0.1712,0.1749,0.1791,0.1827,0.1843,0.1871,0.1838,0.1934,0.1888,0.1918,0.192,0.1813,0.1804,0.1929,0.1929,0.1928,0.1928,0.1928,0,0.1368,0.1385,0.1428,0.1439,0.1473,0.1514,0.1559,0.1602,0.167,0.1724,0.1769,0.1824,0.1854,0.1911,0.191,0.1963,0.1971,0.1946,0.1951,0.1828,0.1819,0.1861,0.1852,0.1932,0.1931,0.193,0.193,0,0.1344,0.1371,0.1397,0.1447,0.1464,0.1489,0.1556,0.1592,0.1664,0.174,0.1768,0.1869,0.1952,0.1988,0.204,0.2029,0.2061,0.2073,0.1942,0.193,0.2019,0.2011,0.2115,0.2116,0.2118,0.2119,0.212,0,0.1336,0.1345,0.1392,0.1408,0.143,0.1471,0.1502,0.1577,0.1624,0.1767,0.1806,0.1926,0.1999,0.2105,0.2119,0.2153,0.2132,0.2042,0.195,0.2048,0.2041,0.2031,0.2022,0.1831,0.1829,0.1828,0.1827,0,0.1315,0.1329,0.1351,0.1384,0.1414,0.1447,0.1502,0.1536,0.164,0.171,0.183,0.1906,0.2046,0.2046,0.2113,0.2099,0.2024,0.202,0.2161,0.1809,0.1789,0.178,0.1778,0.1815,0.1817,0.1817,0.1818,0.1818,0.1296,0.1303,0.1331,0.136,0.1393,0.1422,0.1437,0.1498,0.1563,0.1661,0.1781,0.1853,0.1929,0.1974,0.1942,0.1922,0.2039,0.1932,0.1932,0.1934,0.189,0.1873,0.1909,0.191,0.1912,0.1913,0.1914,0,0.1268,0.1282,0.1308,0.1338,0.1352,0.1387,0.1436,0.1433,0.1478,0.1589,0.1674,0.1624,0.1672,0.1726,0.1702,0.1731,0.1659,0.1645,0.1529,0.1546,0.1559,0.149,0.1406,0.1403,0.1401,0.1399,0,0,0.1253,0.1255,0.1269,0.1284,0.131,0.1311,0.1326,0.1324,0.1375,0.1396,0.1437,0.1602,0.1705,0.1522,0.1529,0.1459,0.1471,0.1406,0.1829,0.1712,0.1721,0.1762,0.1681,0,0,0,0,0]},{"header":{"parameterUnit":"m.s-1","parameterCategory":2,"la1":30.2991,"la2":30.254,"lo1":-89.0895,"lo2":-89.0444,"dy":0.0017,"dx":0.0017,"nx":28,"ny":28,"refTime":"2025-08-13T03:00:00:Z","depth":"2","parameterNumber":3,"parameterNumberName":"V-component_of_CURRENTS"},"data":[0,0,0,0,0,0,0,0,0,0,0,0,0,0,0,0,0,0,0,0,0,0,0,0,0,0,0,0,0,0,0,0,0,0,0,0,0,0,0,0,0,0,0,0,0,0,0,0,0,0,0,0,0,0,0,0,0,0,-0.0149,-0.0149,0,-0.0179,-0.0179,-0.018,-0.0202,-0.0202,-0.0203,-0.0203,-0.0246,-0.0247,-0.0248,0,0,0,0,0,0,0,0,0,0,0,0,0,-0.0124,-0.0124,-0.0149,-0.0149,-0.015,-0.0179,-0.0179,-0.018,-0.0202,-0.0202,-0.0203,-0.0203,-0.0246,-0.0247,-0.0248,0,0,0,0,0,0,0,0,0,0,0,0,0,-0.0142,-0.0124,-0.0149,-0.0164,-0.0166,-0.0179,-0.0179,-0.018,-0.0202,-0.0202,-0.0203,-0.0203,-0.0245,-0.0247,-0.0248,-0.0251,0,0,-0.0252,-0.0253,0,0,0,0,0,0,0,0,-0.0141,-0.0143,-0.0162,-0.0163,-0.0165,-0.0187,-0.0186,-0.0204,-0.0202,-0.0188,-0.0203,-0.0203,-0.0227,-0.023,-0.0235,-0.0253,-0.0255,-0.0253,-0.0253,-0.0254,-0.0254,0,0,0,0,0,0,0,-0.014,-0.0142,-0.0161,-0.0162,-0.0164,-0.0174,-0.0177,-0.019,-0.0206,-0.019,-0.0191,-0.0195,-0.0228,-0.0233,-0.0236,-0.0255,-0.0253,-0.0254,-0.0255,-0.0255,-0.029,-0.029,0,0,0,0,0,0,-0.0135,-0.0141,-0.016,-0.0162,-0.0154,-0.0174,-0.0178,-0.018,-0.0206,-0.021,-0.0194,-0.0195,-0.0231,-0.0234,-0.0238,-0.0251,-0.0254,-0.0255,-0.0256,-0.029,-0.029,-0.029,0,0,0,0,0,0,-0.0135,-0.0137,-0.0159,-0.0152,-0.0156,-0.0174,-0.0177,-0.018,-0.0189,-0.0209,-0.0213,-0.02,-0.0231,-0.0236,-0.0249,-0.0252,-0.0256,-0.0257,-0.029,-0.029,-0.029,-0.0271,0,0,0,0,0,0,-0.0134,-0.0136,-0.0137,-0.0152,-0.0156,-0.0162,-0.0177,-0.0181,-0.019,-0.0192,-0.0215,-0.0219,-0.0232,-0.0247,-0.0251,-0.0254,-0.0258,-0.0289,-0.029,-0.029,-0.0272,-0.0271,-0.027,0,0,0,0,0,-0.0133,-0.0127,-0.0137,-0.0139,-0.0156,-0.0162,-0.0164,-0.0179,-0.019,-0.0189,-0.0207,-0.0219,-0.0251,-0.0248,-0.0252,-0.0257,-0.0289,-0.029,-0.029,-0.0272,-0.0271,-0.027,0,0,0,0,0,0,-0.0114,-0.0129,-0.014,-0.0139,-0.015,-0.0165,-0.0166,-0.0179,-0.0193,-0.0197,-0.0218,-0.0223,-0.0237,-0.0248,-0.0245,-0.0267,-0.0272,-0.0273,-0.0258,-0.0257,-0.0256,-0.0246,-0.026,0,0,0,0,0,-0.0111,-0.0113,-0.0128,-0.0129,-0.0133,-0.0151,-0.0157,-0.0167,-0.0181,-0.0188,-0.0206,-0.0224,-0.024,-0.0249,-0.0263,-0.0273,-0.0286,-0.0279,-0.0278,-0.0277,-0.0273,-0.0303,-0.0304,-0.029,-0.029,-0.029,0,0,-0.0106,-0.0113,-0.0116,-0.0125,-0.0136,-0.0134,-0.0155,-0.0161,-0.0162,-0.019,-0.0199,-0.0221,-0.0242,-0.0254,-0.0261,-0.0264,-0.0285,-0.0278,-0.0277,-0.0272,-0.0303,-0.0305,-0.0306,-0.029,-0.029,-0.029,0,0,-0.0088,-0.0101,-0.0094,-0.01,-0.0112,-0.0123,-0.0124,-0.0142,-0.0152,-0.0163,-0.0186,-0.0209,-0.023,-0.0248,-0.0259,-0.026,-0.0279,-0.0267,-0.0255,-0.0285,-0.0286,-0.0288,-0.0293,-0.0295,-0.0267,-0.0267,-0.0267,0,-0.008,-0.0074,-0.0093,-0.0085,-0.0086,-0.0115,-0.0105,-0.0119,-0.014,-0.0149,-0.0162,-0.0206,-0.0226,-0.0245,-0.0248,-0.0258,-0.0271,-0.0258,-0.0284,-0.0285,-0.0287,-0.0292,-0.0295,-0.0266,-0.0266,-0.0267,-0.0267,0,-0.0055,-0.0051,-0.0046,-0.0047,-0.0051,-0.0048,-0.0067,-0.0078,-0.0098,-0.0117,-0.0145,-0.0179,-0.0206,-0.022,-0.0234,-0.0258,-0.0261,-0.0278,-0.0286,-0.0287,-0.0293,-0.0296,-0.0265,-0.0265,-0.0266,-0.0266,0,0,-0.0033,-0.0028,-0.0027,-0.0018,-0.0031,-0.0028,-0.0034,-0.0046,-0.0049,-0.0087,-0.0099,-0.0141,-0.0172,-0.0187,-0.0218,-0.0246,-0.0269,-0.0266,-0.0268,-0.0269,-0.0319,-0.0313,-0.0316,-0.0297,-0.0297,-0.0298,-0.0313,0,-0.0007,0.0021,0.0012,0.0034,0.0046,0.0021,0.0022,0.0003,-0.0022,-0.0043,-0.0096,-0.0119,-0.0156,-0.0174,-0.021,-0.0255,-0.0278,-0.0262,-0.032,-0.0321,-0.0314,-0.032,-0.0306,-0.0319,-0.0316,-0.0317,-0.0317,0,0.0023,0.0038,0.0066,0.0079,0.0082,0.0086,0.0079,0.0075,0.0035,0.0014,-0.0032,-0.0075,-0.0125,-0.0157,-0.0236,-0.0225,-0.0268,-0.0303,-0.0305,-0.0308,-0.0321,-0.032,-0.0324,-0.0323,-0.0322,-0.0322,-0.0321,0,0.0054,0.0077,0.0102,0.0105,0.0112,0.0116,0.0113,0.0088,0.0091,0.0042,0.0038,-0.0039,-0.0065,-0.0144,-0.0217,-0.0232,-0.0294,-0.0325,-0.0355,-0.0354,-0.0357,-0.0356,-0.0377,-0.0377,-0.0377,-0.0377,-0.0377,0,0.0087,0.0107,0.0118,0.0131,0.0161,0.0148,0.0165,0.0151,0.0134,0.015,0.0066,0.0071,-0.0064,-0.0116,-0.0199,-0.0276,-0.0281,-0.035,-0.0363,-0.0349,-0.0346,-0.0364,-0.0363,-0.0377,-0.0377,-0.0377,-0.0377,0,0.0115,0.0121,0.0153,0.0169,0.0176,0.0194,0.021,0.0225,0.0202,0.022,0.0209,0.0151,0.0086,-0.0034,-0.0147,-0.0233,-0.032,-0.0342,-0.0303,-0.0312,-0.0366,-0.0363,-0.0393,-0.0393,-0.0393,-0.0393,-0.0393,0,0.0131,0.015,0.0183,0.0208,0.0215,0.024,0.0263,0.0255,0.0284,0.0288,0.0313,0.0252,0.024,0.0074,-0.01,-0.0249,-0.0277,-0.0335,-0.0372,-0.0359,-0.037,-0.0367,-0.0364,-0.0362,-0.0362,-0.0362,-0.0362,0,0.0164,0.0173,0.02,0.0252,0.0284,0.0329,0.0366,0.0407,0.0416,0.0445,0.0499,0.0488,0.0321,0.0172,-0.0054,-0.0163,-0.0321,-0.0336,-0.034,-0.0359,-0.0332,-0.0342,-0.034,-0.036,-0.036,-0.036,-0.036,-0.036,0.0185,0.0214,0.0253,0.0305,0.035,0.0427,0.0486,0.0541,0.0615,0.0679,0.0654,0.0649,0.0438,0.0166,-0.0042,-0.0279,-0.0279,-0.0367,-0.0367,-0.0368,-0.036,-0.0335,-0.036,-0.036,-0.036,-0.036,-0.036,0,0.0221,0.0257,0.0307,0.0379,0.0448,0.0462,0.0567,0.0632,0.075,0.0794,0.0835,0.0664,0.0476,0.0235,-0.011,-0.0315,-0.0348,-0.0383,-0.0379,-0.0379,-0.038,-0.0373,-0.0377,-0.0378,-0.0378,-0.0378,0,0,0.0242,0.0302,0.0334,0.0455,0.0513,0.0625,0.0701,0.0794,0.0856,0.0924,0.0922,0.0866,0.0568,0.0322,0.0029,-0.0169,-0.0227,-0.0213,-0.0179,-0.0141,-0.0139,-0.0352,-0.0339,0,0,0,0,0]}],[{"header":{"parameterUnit":"m.s-1","parameterCategory":2,"la1":30.2991,"la2":30.254,"lo1":-89.0895,"lo2":-89.0444,"dy":0.0017,"dx":0.0017,"nx":28,"ny":28,"refTime":"2025-08-13T03:00:00:Z","depth":"4","parameterNumber":2,"parameterNumberName":"U-component_of_CURRENTS"},"data":[0,0,0,0,0,0,0,0,0,0,0,0,0,0,0,0,0,0,0,0,0,0,0,0,0,0,0,0,0,0,0,0,0,0,0,0,0,0,0,0,0,0,0,0,0,0,0,0,0,0,0,0,0,0,0,0,0,0,0.0806,0.0807,0,0.0871,0.0871,0.0872,0.0922,0.0923,0.0923,0.0924,0.0996,0.0997,0.0999,0,0,0,0,0,0,0,0,0,0,0,0,0,0.0737,0.0738,0.0806,0.0807,0.0808,0.0871,0.0871,0.0872,0.0922,0.0923,0.0923,0.0924,0.0996,0.0997,0.0999,0,0,0,0,0,0,0,0,0,0,0,0,0,0.078,0.0738,0.0806,0.0841,0.0844,0.087,0.0871,0.0872,0.0922,0.0923,0.0924,0.0924,0.0995,0.0997,0.0999,0.0996,0,0,0.1006,0.1007,0,0,0,0,0,0,0,0,0.0778,0.0782,0.0835,0.0838,0.0843,0.089,0.0874,0.0914,0.0922,0.0892,0.0924,0.0925,0.0961,0.0966,0.0975,0.0999,0.1003,0.1006,0.1007,0.1008,0.1009,0,0,0,0,0,0,0,0.0774,0.078,0.0831,0.0835,0.084,0.0857,0.0864,0.0882,0.0921,0.0895,0.0898,0.0906,0.0963,0.0973,0.0977,0.1004,0.1006,0.1008,0.1009,0.101,0.1092,0.1093,0,0,0,0,0,0,0.0766,0.0777,0.0829,0.0833,0.0812,0.0858,0.0865,0.0873,0.0921,0.0929,0.0906,0.0909,0.0969,0.0975,0.098,0.1038,0.1008,0.101,0.1011,0.1091,0.1092,0.1093,0,0,0,0,0,0,0.0765,0.077,0.0826,0.0807,0.0815,0.0858,0.0867,0.0874,0.0906,0.0929,0.0937,0.0932,0.097,0.0977,0.1017,0.1039,0.1011,0.1013,0.109,0.1092,0.1093,0.1117,0,0,0,0,0,0,0.0762,0.0769,0.078,0.0806,0.0816,0.0856,0.0866,0.0875,0.0908,0.0913,0.0954,0.096,0.0971,0.1014,0.102,0.1042,0.1015,0.1089,0.1091,0.1092,0.1115,0.1119,0.1122,0,0,0,0,0,0.076,0.077,0.078,0.0787,0.0827,0.0857,0.0864,0.0896,0.0909,0.0926,0.0956,0.096,0.1029,0.1017,0.1023,0.1046,0.1088,0.109,0.1092,0.1113,0.1118,0.1122,0,0,0,0,0,0,0.0747,0.0777,0.0789,0.0808,0.0837,0.0866,0.0887,0.0905,0.0941,0.0952,0.0972,0.0981,0.1023,0.103,0.1017,0.1075,0.1059,0.1062,0.1073,0.1078,0.1081,0.1081,0.1016,0,0,0,0,0,0.0748,0.0765,0.0794,0.0813,0.0828,0.086,0.0879,0.0901,0.0931,0.095,0.0977,0.1006,0.1032,0.1052,0.1074,0.1106,0.1114,0.1125,0.1128,0.1131,0.1135,0.1158,0.1164,0.11,0.11,0.11,0,0,0.0747,0.0768,0.0778,0.0812,0.0837,0.0863,0.0874,0.091,0.0935,0.095,0.0999,0.1021,0.1043,0.1081,0.1101,0.1094,0.1157,0.1134,0.1136,0.1139,0.1161,0.1167,0.1172,0.1101,0.1101,0.1101,0,0,0.0754,0.0776,0.0793,0.0818,0.0859,0.0877,0.0891,0.0931,0.0957,0.1,0.1017,0.1052,0.1095,0.1114,0.1128,0.1164,0.1174,0.1176,0.1198,0.122,0.1226,0.123,0.1259,0.1266,0.118,0.118,0.118,0,0.0754,0.078,0.0804,0.083,0.0852,0.0885,0.0911,0.0939,0.0989,0.1011,0.1022,0.1091,0.1109,0.1151,0.1167,0.1173,0.1191,0.1179,0.1225,0.1229,0.1234,0.1262,0.1269,0.1181,0.1181,0.1181,0.1181,0,0.0771,0.0799,0.0814,0.0855,0.0881,0.091,0.0948,0.0983,0.1016,0.1042,0.1098,0.1127,0.1168,0.118,0.1188,0.1232,0.1237,0.1224,0.1211,0.1242,0.1269,0.1277,0.1183,0.1183,0.1182,0.1182,0,0,0.0749,0.0812,0.082,0.0844,0.0898,0.092,0.0966,0.1011,0.1046,0.1094,0.1137,0.1184,0.1205,0.1222,0.1238,0.126,0.131,0.1262,0.1263,0.1288,0.1373,0.1319,0.1321,0.1309,0.131,0.1311,0.1383,0,0.0757,0.0803,0.0834,0.0881,0.0907,0.0951,0.0989,0.1036,0.108,0.1129,0.1165,0.1213,0.1219,0.1248,0.1272,0.1302,0.1329,0.1292,0.1342,0.1344,0.1289,0.1328,0.1315,0.1388,0.139,0.1391,0.1392,0,0.076,0.0793,0.0837,0.0898,0.0914,0.0948,0.1015,0.1053,0.1121,0.1161,0.1213,0.1242,0.1297,0.1289,0.136,0.134,0.1362,0.1378,0.1381,0.1325,0.1303,0.135,0.1405,0.1404,0.1403,0.1402,0.1402,0,0.0729,0.0794,0.0829,0.085,0.0921,0.0955,0.0996,0.1066,0.1106,0.1185,0.1225,0.1285,0.1333,0.1364,0.1413,0.1392,0.1484,0.1452,0.1425,0.1422,0.1437,0.1431,0.1495,0.1495,0.1495,0.1494,0.1494,0,0.0717,0.0748,0.0822,0.0841,0.0886,0.0944,0.0999,0.1053,0.1131,0.1178,0.124,0.1289,0.1357,0.1415,0.1434,0.1465,0.1506,0.1439,0.1437,0.1447,0.1441,0.1443,0.1436,0.1497,0.1496,0.1496,0.1496,0,0.0678,0.0728,0.0769,0.0847,0.0874,0.0907,0.0997,0.1034,0.112,0.1185,0.1214,0.1316,0.1397,0.1458,0.1527,0.1497,0.1523,0.1523,0.1555,0.1552,0.1438,0.1431,0.1483,0.1481,0.148,0.1479,0.1478,0,0.0661,0.0681,0.0759,0.0784,0.0823,0.0883,0.0922,0.1019,0.1059,0.1191,0.1213,0.133,0.1389,0.1452,0.1513,0.156,0.1544,0.1542,0.146,0.1443,0.1437,0.1432,0.1428,0.1477,0.1476,0.1476,0.1476,0,0.0622,0.0656,0.0686,0.0739,0.0786,0.0829,0.0896,0.0923,0.1032,0.1117,0.1199,0.1259,0.1357,0.142,0.1484,0.1503,0.1527,0.1529,0.153,0.1454,0.1437,0.1431,0.1427,0.1472,0.1473,0.1473,0.1473,0,0.0589,0.0597,0.0644,0.0685,0.0736,0.0768,0.0811,0.0875,0.0934,0.1081,0.1109,0.124,0.1345,0.1393,0.1442,0.1473,0.144,0.1377,0.1385,0.139,0.1327,0.129,0.1287,0,0,0,0,0,0.0558,0.0564,0.0589,0.063,0.0678,0.0717,0.0789,0.0835,0.094,0.0977,0.1046,0.1133,0.1231,0.1296,0.1311,0.1395,0.1437,0.1404,0.1365,0.1451,0.1455,0.139,0,0,0,0,0,0,0.0534,0.0558,0.0565,0.0577,0.0601,0.0652,0.07,0.0773,0.0798,0.0913,0.0976,0.1067,0.1178,0.1222,0.1292,0.1312,0.1266,0.1488,0.1485,0.1448,0.1452,0.1456,0.1391,0,0,0,0,0]},{"header":{"parameterUnit":"m.s-1","parameterCategory":2,"la1":30.2991,"la2":30.254,"lo1":-89.0895,"lo2":-89.0444,"dy":0.0017,"dx":0.0017,"nx":28,"ny":28,"refTime":"2025-08-13T03:00:00:Z","depth":"4","parameterNumber":3,"parameterNumberName":"V-component_of_CURRENTS"},"data":[0,0,0,0,0,0,0,0,0,0,0,0,0,0,0,0,0,0,0,0,0,0,0,0,0,0,0,0,0,0,0,0,0,0,0,0,0,0,0,0,0,0,0,0,0,0,0,0,0,0,0,0,0,0,0,0,0,0,0.013,0.0129,0,0.0086,0.0086,0.0085,0.0047,0.0046,0.0046,0.0046,-0.0027,-0.0029,-0.0031,0,0,0,0,0,0,0,0,0,0,0,0,0,0.0132,0.0132,0.013,0.0129,0.0129,0.0086,0.0086,0.0085,0.0047,0.0046,0.0046,0.0045,-0.0027,-0.0029,-0.0031,0,0,0,0,0,0,0,0,0,0,0,0,0,0.0113,0.0132,0.013,0.0105,0.0103,0.0086,0.0086,0.0085,0.0047,0.0046,0.0046,0.0045,-0.0026,-0.0029,-0.0031,-0.0035,0,0,-0.0038,-0.0039,0,0,0,0,0,0,0,0,0.0114,0.0113,0.0109,0.0107,0.0104,0.0072,0.006,0.0044,0.0047,0.0067,0.0046,0.0045,0.0004,-0.0001,-0.0009,-0.0038,-0.0041,-0.0039,-0.004,-0.0041,-0.0042,0,0,0,0,0,0,0,0.0116,0.0114,0.0111,0.0109,0.0106,0.008,0.0077,0.0056,0.0038,0.0065,0.0063,0.0059,0.0002,-0.0006,-0.0011,-0.0043,-0.0038,-0.0041,-0.0042,-0.0043,-0.009,-0.009,0,0,0,0,0,0,0.0126,0.0116,0.0113,0.011,0.0109,0.0081,0.0077,0.0082,0.0039,0.0032,0.006,0.0058,-0.0002,-0.0008,-0.0013,-0.0025,-0.0041,-0.0043,-0.0045,-0.009,-0.009,-0.0089,0,0,0,0,0,0,0.0126,0.0127,0.0115,0.0112,0.0109,0.0082,0.0087,0.0082,0.007,0.0035,0.0028,0.0054,-0.0002,-0.001,-0.0032,-0.0028,-0.0044,-0.0047,-0.009,-0.009,-0.009,-0.0046,0,0,0,0,0,0,0.0127,0.0127,0.0133,0.0113,0.011,0.0105,0.0087,0.0081,0.007,0.0066,0.0028,0.002,-0.0003,-0.0028,-0.0034,-0.0032,-0.0048,-0.009,-0.009,-0.009,-0.0048,-0.0045,-0.0042,0,0,0,0,0,0.0127,0.0139,0.0133,0.0133,0.0119,0.0106,0.0101,0.0079,0.007,0.0066,0.0042,0.0021,-0.003,-0.003,-0.0037,-0.0036,-0.0091,-0.009,-0.009,-0.005,-0.0045,-0.0042,0,0,0,0,0,0,0.0142,0.0135,0.0129,0.0138,0.0123,0.0099,0.0095,0.0082,0.006,0.0056,0.0023,0.0015,-0.0004,-0.0024,-0.0023,-0.0048,-0.0063,-0.0064,-0.003,-0.0027,-0.0024,-0.0011,-0.005,0,0,0,0,0,0.0149,0.0156,0.0141,0.0147,0.0142,0.0119,0.0111,0.0097,0.0077,0.0066,0.0041,0.0014,-0.0006,-0.002,-0.0043,-0.0056,-0.0075,-0.0059,-0.0056,-0.0053,-0.0048,-0.0068,-0.0066,-0.0088,-0.0088,-0.0088,0,0,0.0157,0.0154,0.0158,0.0151,0.0137,0.0132,0.0113,0.0103,0.0099,0.0062,0.0048,0.0023,-0.0007,-0.0023,-0.0032,-0.004,-0.0058,-0.0053,-0.005,-0.0046,-0.0067,-0.0065,-0.0063,-0.0088,-0.0088,-0.0088,0,0,0.0169,0.0172,0.0177,0.0169,0.0153,0.0143,0.0142,0.012,0.011,0.0094,0.0069,0.0051,0.0014,-0.0003,-0.0017,-0.0009,-0.0041,-0.002,0.0006,-0.0013,-0.0011,-0.001,-0.0034,-0.0036,-0.0018,-0.0018,-0.0018,0,0.0174,0.0183,0.0174,0.0173,0.0172,0.015,0.0153,0.014,0.0114,0.0113,0.0094,0.0054,0.0026,0.0016,0.0015,-0.0001,-0.0021,-0.0005,-0.0008,-0.0007,-0.0007,-0.0032,-0.0034,-0.0016,-0.0016,-0.0016,-0.0016,0,0.0184,0.0192,0.0194,0.0191,0.0188,0.0187,0.0174,0.0168,0.0155,0.0143,0.0129,0.0093,0.0071,0.0058,0.0036,0.003,0.0011,-0.0002,-0.0016,-0.0002,-0.003,-0.0032,-0.0013,-0.0013,-0.0014,-0.0015,0,0,0.0192,0.0201,0.02,0.021,0.02,0.0202,0.0202,0.02,0.0209,0.0178,0.0185,0.0145,0.0128,0.0111,0.0083,0.0064,0.0047,0.0034,0.0032,0.0014,-0.0002,-0.0021,-0.0026,0.0032,0.0032,0.0032,-0.0024,0,0.02,0.0214,0.0214,0.0231,0.0239,0.0233,0.024,0.0237,0.0228,0.0229,0.0198,0.0187,0.0148,0.0138,0.0114,0.0064,0.0042,0.0063,-0.0016,-0.0019,-0.0034,-0.0029,0.0031,-0.0026,-0.0027,-0.0027,-0.0028,0,0.0203,0.0217,0.0237,0.0266,0.027,0.0278,0.0298,0.0301,0.0297,0.0289,0.0273,0.0246,0.0215,0.0181,0.0105,0.0118,0.0063,0.0022,0.0019,-0.0015,-0.0043,-0.0044,-0.0033,-0.0033,-0.0032,-0.0032,-0.0031,0,0.0213,0.0234,0.0258,0.0264,0.0287,0.0301,0.0315,0.032,0.0337,0.0329,0.0333,0.0291,0.0268,0.0201,0.0106,0.0105,0.0019,0.0008,-0.006,-0.0063,-0.0047,-0.0048,-0.0041,-0.0041,-0.0041,-0.0041,-0.0041,0,0.0221,0.024,0.0268,0.028,0.0319,0.0327,0.0366,0.0369,0.0385,0.0406,0.0366,0.0361,0.027,0.0208,0.0124,0.0019,0.0029,-0.0054,-0.0076,-0.0029,-0.0027,-0.005,-0.005,-0.0043,-0.0043,-0.0042,-0.0042,0,0.0222,0.0238,0.027,0.0307,0.0324,0.0351,0.0402,0.043,0.0435,0.0458,0.0456,0.0411,0.0322,0.0225,0.0109,0.0041,-0.0054,-0.0094,-0.004,-0.0058,-0.0127,-0.0124,-0.0166,-0.0167,-0.0168,-0.0169,-0.017,0,0.0224,0.0239,0.029,0.0317,0.0336,0.0383,0.0419,0.0449,0.0477,0.0482,0.0492,0.0423,0.0374,0.0205,0.0094,-0.0062,-0.0088,-0.0135,-0.0126,-0.0121,-0.0138,-0.0134,-0.0131,-0.0171,-0.0172,-0.0172,-0.0172,0,0.0227,0.0244,0.0274,0.0329,0.0374,0.0429,0.0479,0.0505,0.0533,0.0542,0.0517,0.0433,0.0334,0.0202,0.0076,-0.0036,-0.01,-0.0145,-0.0143,-0.0136,-0.0128,-0.0143,-0.0138,-0.0175,-0.0175,-0.0174,-0.0174,0,0.0228,0.025,0.0289,0.0338,0.0398,0.0453,0.0485,0.0518,0.0548,0.0553,0.0539,0.0437,0.0382,0.0213,0.0098,-0.0015,-0.0043,-0.0074,-0.0076,-0.0074,-0.0035,-0.001,-0.0037,0,0,0,0,0,0.0226,0.0249,0.0296,0.0353,0.0413,0.0448,0.0514,0.0543,0.0571,0.0559,0.0552,0.0459,0.0292,0.0223,0.0107,0.0069,-0.0071,-0.0072,-0.0109,-0.0193,-0.0189,-0.0161,0,0,0,0,0,0,0.0224,0.0262,0.0288,0.0353,0.0392,0.0463,0.0506,0.053,0.0527,0.0536,0.0452,0.042,0.0259,0.0351,0.0098,0.0065,0.0024,-0.0146,-0.0149,-0.0195,-0.0192,-0.0189,-0.0158,0,0,0,0,0]}]]